Weather History for Crockett, TX

Change the Weather History Date:

Sunday, November 4, 2012

  Actual Average (KLFK) Record (KLFK)
Temperature  
Mean Temperature 68 °F 62 °F  
Max Temperature 80 °F 74 °F 89 °F (1948)
Min Temperature 55 °F 50 °F 23 °F (1991)
Degree Days  
Heating Degree Days 0 5  
Month to date heating degree days 19  
Since 1 July heating degree days 85  
Cooling Degree Days 2 2  
Month to date cooling degree days 8  
Year to date cooling degree days 2552  
Growing Degree Days 18 (Base 50)    
Moisture  
Dew Point 58 °F    
Average Humidity 80    
Maximum Humidity 100    
Minimum Humidity 45    
Precipitation  
Precipitation 0.00 in 0.17 in 5.14 in (2002)
Month to date precipitation 0.68  
Year to date precipitation 40.18  
Snow  
Snow 0.00 in - - ()
Month to date snowfall  
Since 1 July snowfall  
Since 1 September snowfall  
Snow Depth -    
Sea Level Pressure  
Sea Level Pressure 30.10 in    
Wind  
Wind Speed 0 mph (NE)    
Max Wind Speed 7 mph    
Max Gust Speed -    
Visibility 9 miles    
Events      
T = Trace of Precipitation, MM = Missing Value Source: NWS Daily Summary

Daily Weather History Graph

Daily Weather History Graph

Search for Another Location

Airport:

Trip Planner

Search our weather history database for the weather conditions in past years. The results will help you decide how hot, cold, wet, or windy it might be!

Date:

Astronomy

Nov. 04, 2012 Rise Set
Actual Time 6:40 AM CST 5:29 PM CST
Civil Twilight 6:14 AM CST 5:55 PM CST
Nautical Twilight 5:46 AM CST 6:23 PM CST
Astronomical Twilight 5:17 AM CST 6:52 PM CST
Moon 10:11 PM CST (11/4) 11:20 AM CST (11/4)
Length of Visible Light 11h 40m
Length of Day
10h 49m
Waning Gibbous, 72% of the Moon is Illuminated
Nov 4
Waning Gibbous
Nov 6
Last Quarter
Nov 13
New
Nov 20
First Quarter
Nov 28
Full

Hourly Weather History & Observations

Time (CST) Temp. Heat Index Dew Point Humidity Pressure Visibility Wind Dir Wind Speed Gust Speed Precip Events Conditions
12:15 AM 57.2 °F - 57.2 °F 100% 30.10 in 1.0 mi Calm Calm - N/A   Clear
12:35 AM 55.4 °F - 55.4 °F 100% 30.11 in 9.0 mi Calm Calm - N/A   Clear
12:55 AM 55.4 °F - 55.4 °F 100% 30.10 in 7.0 mi Calm Calm - N/A   Clear
1:15 AM 55.4 °F - 55.4 °F 100% 30.10 in 5.0 mi Calm Calm - N/A   Clear
1:35 AM 55.4 °F - 55.4 °F 100% 30.10 in 7.0 mi Calm Calm - N/A   Clear
1:55 AM 55.4 °F - 53.6 °F 94% 30.11 in 5.0 mi Calm Calm - N/A   Clear
1:15 AM 57.2 °F - 55.4 °F 94% 30.10 in 6.0 mi Calm Calm - N/A   Clear
1:35 AM 55.4 °F - 55.4 °F 100% 30.09 in 7.0 mi Calm Calm - N/A   Clear
1:55 AM 55.4 °F - 53.6 °F 94% 30.09 in 5.0 mi Calm Calm - N/A   Clear
2:15 AM 55.4 °F - 55.4 °F 100% 30.09 in 3.0 mi Calm Calm - N/A   Clear
2:35 AM 55.4 °F - 53.6 °F 94% 30.09 in 8.0 mi Calm Calm - N/A   Clear
2:55 AM 55.4 °F - 53.6 °F 94% 30.10 in 9.0 mi Calm Calm - N/A   Partly Cloudy
3:15 AM 57.2 °F - 55.4 °F 94% 30.09 in 7.0 mi Calm Calm - N/A   Mostly Cloudy
3:35 AM 57.2 °F - 57.2 °F 100% 30.10 in 10.0 mi Calm Calm - N/A   Mostly Cloudy
3:55 AM 57.2 °F - 57.2 °F 100% 30.11 in 10.0 mi Calm Calm - N/A   Mostly Cloudy
4:15 AM 57.2 °F - 57.2 °F 100% 30.11 in 10.0 mi Calm Calm - N/A   Mostly Cloudy
4:35 AM 57.2 °F - 57.2 °F 100% 30.11 in 8.0 mi Calm Calm - N/A   Scattered Clouds
4:55 AM 57.2 °F - 57.2 °F 100% 30.11 in 10.0 mi Calm Calm - N/A   Mostly Cloudy
5:15 AM 57.2 °F - 55.4 °F 94% 30.12 in 10.0 mi Calm Calm - N/A   Partly Cloudy
5:35 AM 55.4 °F - 55.4 °F 100% 30.12 in 10.0 mi Calm Calm - N/A   Scattered Clouds
5:55 AM 57.2 °F - 57.2 °F 100% 30.13 in 10.0 mi Calm Calm - N/A   Mostly Cloudy
6:15 AM 57.2 °F - 55.4 °F 94% 30.14 in 10.0 mi Calm Calm - N/A   Overcast
6:35 AM 57.2 °F - 57.2 °F 100% 30.14 in 10.0 mi Calm Calm - N/A   Scattered Clouds
6:55 AM 57.2 °F - 57.2 °F 100% 30.14 in 8.0 mi Calm Calm - N/A   Clear
7:15 AM 57.2 °F - 57.2 °F 100% 30.14 in 6.0 mi Calm Calm - N/A   Clear
7:35 AM 59.0 °F - 57.2 °F 94% 30.15 in 10.0 mi Calm Calm - N/A   Clear
7:55 AM 60.8 °F - 60.8 °F 100% 30.15 in 10.0 mi Calm Calm - N/A   Clear
8:15 AM 62.6 °F - 60.8 °F 94% 30.15 in 10.0 mi Calm Calm - N/A   Clear
8:35 AM 66.2 °F - 59.0 °F 78% 30.15 in 10.0 mi Calm Calm - N/A   Clear
8:55 AM 68.0 °F - 60.8 °F 78% 30.14 in 10.0 mi Calm Calm - N/A   Clear
9:15 AM 71.6 °F - 59.0 °F 64% 30.14 in 10.0 mi Calm Calm - N/A   Clear
9:55 AM 73.4 °F - 57.2 °F 57% 30.14 in 10.0 mi Calm Calm - N/A   Clear
10:15 AM 73.4 °F - 59.0 °F 61% 30.14 in 7.0 mi Calm Calm - N/A   Clear
10:35 AM 75.2 °F - 59.0 °F 57% 30.14 in 9.0 mi Calm Calm - N/A   Clear
10:55 AM 75.2 °F - 59.0 °F 57% 30.13 in 9.0 mi Calm Calm - N/A   Clear
11:15 AM 77.0 °F - 59.0 °F 54% 30.12 in 10.0 mi Calm Calm - N/A   Clear
11:35 AM 78.8 °F - 59.0 °F 51% 30.11 in 10.0 mi NNE 4.6 mph - N/A   Clear
11:55 AM 78.8 °F - 57.2 °F 47% 30.11 in 9.0 mi Calm Calm - N/A   Clear
12:15 PM 78.8 °F - 57.2 °F 47% 30.10 in 10.0 mi Calm Calm - N/A   Clear
12:35 PM 78.8 °F - 57.2 °F 47% 30.09 in 9.0 mi Calm Calm - N/A   Clear
12:55 PM 80.6 °F 81.1 °F 59.0 °F 48% 30.08 in 10.0 mi ENE 6.9 mph - N/A   Clear
1:15 PM 80.6 °F 80.8 °F 57.2 °F 45% 30.08 in 10.0 mi Calm Calm - N/A   Clear
1:35 PM 80.6 °F 80.8 °F 57.2 °F 45% 30.07 in 10.0 mi Calm Calm - N/A   Clear
1:55 PM 80.6 °F 80.8 °F 57.2 °F 45% 30.07 in 10.0 mi Calm Calm - N/A   Clear
2:15 PM 80.6 °F 80.8 °F 57.2 °F 45% 30.06 in 10.0 mi Calm Calm - N/A   Clear
2:35 PM 80.6 °F 80.8 °F 57.2 °F 45% 30.06 in 10.0 mi Calm Calm - N/A   Clear
2:55 PM 80.6 °F 80.8 °F 57.2 °F 45% 30.06 in 10.0 mi Calm Calm - N/A   Clear
3:15 PM 80.6 °F 80.8 °F 57.2 °F 45% 30.05 in 10.0 mi Calm Calm - N/A   Partly Cloudy
3:35 PM 78.8 °F - 57.2 °F 47% 30.05 in 10.0 mi Calm Calm - N/A   Clear
3:55 PM 80.6 °F 80.8 °F 57.2 °F 45% 30.05 in 10.0 mi Calm Calm - N/A   Clear
4:15 PM 80.6 °F 80.8 °F 57.2 °F 45% 30.05 in 10.0 mi Calm Calm - N/A   Clear
4:35 PM 78.8 °F - 60.8 °F 54% 30.05 in 10.0 mi Calm Calm - N/A   Clear
4:55 PM 75.2 °F - 62.6 °F 65% 30.06 in 10.0 mi Calm Calm - N/A   Clear
5:15 PM 71.6 °F - 62.6 °F 73% 30.06 in 10.0 mi Calm Calm - N/A   Clear
5:35 PM 69.8 °F - 62.6 °F 78% 30.07 in 10.0 mi Calm Calm - N/A   Clear
5:55 PM 66.2 °F - 62.6 °F 88% 30.07 in 10.0 mi Calm Calm - N/A   Clear
6:15 PM 66.2 °F - 62.6 °F 88% 30.07 in 10.0 mi Calm Calm - N/A   Clear
6:35 PM 64.4 °F - 60.8 °F 88% 30.08 in 10.0 mi Calm Calm - N/A   Clear
6:55 PM 64.4 °F - 60.8 °F 88% 30.08 in 10.0 mi Calm Calm - N/A   Scattered Clouds
7:15 PM 64.4 °F - 60.8 °F 88% 30.08 in 10.0 mi Calm Calm - N/A   Mostly Cloudy
7:35 PM 64.4 °F - 60.8 °F 88% 30.08 in 10.0 mi Calm Calm - N/A   Mostly Cloudy
7:55 PM 62.6 °F - 60.8 °F 94% 30.09 in 10.0 mi Calm Calm - N/A   Partly Cloudy
8:15 PM 62.6 °F - 60.8 °F 94% 30.09 in 10.0 mi Calm Calm - N/A   Mostly Cloudy
8:35 PM 64.4 °F - 60.8 °F 88% 30.10 in 10.0 mi Calm Calm - N/A   Overcast
8:55 PM 64.4 °F - 60.8 °F 88% 30.10 in 10.0 mi Calm Calm - N/A   Mostly Cloudy
9:15 PM 64.4 °F - 60.8 °F 88% 30.10 in 10.0 mi Calm Calm - N/A   Partly Cloudy
9:35 PM 62.6 °F - 60.8 °F 94% 30.11 in 10.0 mi Calm Calm - N/A   Clear
9:55 PM 62.6 °F - 60.8 °F 94% 30.11 in 10.0 mi Calm Calm - N/A   Clear
10:15 PM 62.6 °F - 60.8 °F 94% 30.11 in 10.0 mi Calm Calm - N/A   Clear
10:35 PM 62.6 °F - 60.8 °F 94% 30.11 in 10.0 mi Calm Calm - N/A   Scattered Clouds
10:55 PM 62.6 °F - 60.8 °F 94% 30.10 in 8.0 mi Calm Calm - N/A   Partly Cloudy